DELTA 1 DEB, 10721

Orbit data source: Space-Track

DELTA 1 DEB, 10721 is space debris in SSO originally from a launch on Thu, 29 Jul 1976 UTC launched from the Air Force Western Test Range (AFWTR). Debris objects in space refer to the collection of defunct objects orbiting the Earth. Examples of debris include non-operational satellites, rocket bodies, and fragments generated from explosions, collisions, or faulty payload assembly.

Loading next visibility...
Identifier
10721, 1976-077AS
Orbit
SSO
Country
Flag of USUS
Related business
Manufacturer
Unknown
Mission
Spacecraft
Bus & Motor
Unknown
Mass
Unknown
Launch date (UTC)
1976-07-29 (50 years ago)
Launch vehicle
Unknown
Launch site
Air Force Western Test Range (AFWTR)
Object type
Payload
Rocket body
Debris
Shape & HBR
Unknown shape, 0.1 m
Radar Cross Section
Medium (>0.1 m² and <1 m²)

Expand to show TLE details & history
Last TLE update: 1 day ago

TLE from 1 day ago
0 DELTA 1 DEB
1 10721U 76077AS  26170.58740703  .00001176  00000-0  65440-2 0  9994
2 10721 101.7853 118.5087 0054540   8.4086 166.6815 12.65060722288611
Epoch: 2026-06-19T14:05Z
TLE epoch observation values (Epoch: 2026-06-19T14:05:51.967Z)
Latitude
4.58693°
Longitude
-179.81766°
Altitude
1,445.552 km
Speed
7.121 km/s
True Right ascension
19h 57m 51s
True Declination
4° 33' 43"
Sunlit
Object was in full shadow at epoch
Visualization orbit readout
Latitude
Unknown
Longitude
Unknown
Altitude
Unknown
Speed
Unknown
Apparent Right ascension
Unknown
Apparent Declination
Unknown
Sunlit
N/A
Visualization observer readout
Local Sidereal Time
03:14:14
Azimuth
Unknown
Elevation
Unknown
Doppler factor
Unknown
Orbital elements
Apogee altitude
1,442.075 km
Perigee altitude
1,357.235 km
Semi-major axis
7,777.792 km
Eccentricity
0.00545
Inclination
101.7853°
RAAN
118.5087°
Arg. of periapsis
8.4086°
True anomaly
166.82452°
Mean anomaly
166.6815°
Eccentric anomaly
166.75311°
Mean motion
3.16416 °/min
Orbital period
113.77 mins
BSTAR
0.006544
Loading maneuver chart data...
Computing Atmospheric mass density...
Loading historical data...
Loading historical data...
Loading historical data...
Loading historical data...
Loading historical data...
Loading historical data...
Loading historical data...

Documentation

Showing up to 5 results
|